{"data":{"norad_id":69600,"intl_designator":"2026-140J","name":"KUIPER-00517","alt_names":[],"object_type":"PAYLOAD","status":"ACTIVE","operator":null,"country":"US","launch_date":"2026-06-17","launch_site_code":"FRGUI","launch_vehicle":null,"mission":null,"orbit_class":"UNKNOWN","rcs_meters":null,"size_class":null,"mass_kg":null,"dimensions":null,"purposes":[],"wikipedia_slug":null,"has_3d_model":false,"image_url":null,"decayed_at":null,"tle_current":{"epoch":"2026-09-20T04:00:03.000096Z","epoch_age_seconds":57813,"freshness":"FRESH","line1":"1 69600U 26140J   26263.16670139 -.01453186  00000+0 -61457-1 0  9999","line2":"2 69600  51.8844 299.5820 0009831 172.4194 196.6968 15.26033256  5718","mean_motion":15.26033256,"eccentricity":0.0009831,"inclination_deg":51.8844,"raan_deg":299.582,"arg_perigee_deg":172.4194,"mean_anomaly_deg":196.6968,"bstar":-0.061457,"rev_number":571,"period_min":94.362294814891,"perigee_km":480.93472641242,"apogee_km":494.43430467628,"semimajor_km":6865.8215155443,"source":"CELESTRAK","updated_at":"2026-09-20T09:00:25.000780Z"}}}